owner,sensor,date,latitude,longitude,vertical_datum,direction_of_sea_water_velocity,sea_water_speed,upward_sea_water_velocity,qcFlag 
TABS,ioos:station:wmo:42046:1,2016-01-01T00:00:00Z,27.8903,-94.0367,2.0,259.2075056,20.6146089,-99999.0,'11111222,11111222,99999999' 
TABS,ioos:station:wmo:42046:1,2016-01-01T00:30:00Z,27.8903,-94.0367,2.0,262.2201479,19.87290115,-99999.0,'11111222,11111222,99999999' 
TABS,ioos:station:wmo:42046:1,2016-01-01T01:00:00Z,27.8903,-94.0367,2.0,267.0733659,20.17630789,-99999.0,'11111222,11111222,99999999' 
TABS,ioos:station:wmo:42046:1,2016-01-01T01:30:00Z,27.8903,-94.0367,2.0,269.2008997,21.52209098,-99999.0,'11111222,11111222,99999999' 
TABS,ioos:station:wmo:42046:1,2016-01-01T02:00:00Z,27.8903,-94.0367,2.0,277.1254206,17.25323158,-99999.0,'11111222,11111222,99999999' 
TABS,ioos:station:wmo:42046:1,2016-01-01T02:30:00Z,27.8903,-94.0367,2.0,279.4686578,15.86614635,-99999.0,'11111222,11111222,99999999' 
TABS,ioos:station:wmo:42046:1,2016-01-01T03:00:00Z,27.8903,-94.0367,2.0,271.3932636,19.33571307,-99999.0,'11111222,11111222,99999999' 
TABS,ioos:station:wmo:42046:1,2016-01-01T03:30:00Z,27.8903,-94.0367,2.0,274.2246274,17.37720633,-99999.0,'11111222,11111222,99999999' 
TABS,ioos:station:wmo:42046:1,2016-01-01T04:00:00Z,27.8903,-94.0367,2.0,290.5698049,20.03744495,-99999.0,'11111222,11111222,99999999' 
TABS,ioos:station:wmo:42046:1,2016-01-01T04:30:00Z,27.8903,-94.0367,2.0,280.0375581,19.33593804,-99999.0,'11111222,11111222,99999999' 
TABS,ioos:station:wmo:42046:1,2016-01-01T05:00:00Z,27.8903,-94.0367,2.0,268.6382817,15.57439565,-99999.0,'11111222,11111222,99999999' 
TABS,ioos:station:wmo:42046:1,2016-01-01T05:30:00Z,27.8903,-94.0367,2.0,271.9245688,13.9978927,-99999.0,'11111222,11111222,99999999' 
TABS,ioos:station:wmo:42046:1,2016-01-01T06:00:00Z,27.8903,-94.0367,2.0,279.0472025,14.05483902,-99999.0,'11111222,11111222,99999999' 
TABS,ioos:station:wmo:42046:1,2016-01-01T06:30:00Z,27.8903,-94.0367,2.0,276.671358,17.21656179,-99999.0,'11111222,11111222,99999999' 
TABS,ioos:station:wmo:42046:1,2016-01-01T07:00:00Z,27.8903,-94.0367,2.0,282.0558186,16.27901717,-99999.0,'11111222,11111222,99999999' 
TABS,ioos:station:wmo:42046:1,2016-01-01T07:30:00Z,27.8903,-94.0367,2.0,284.2771155,16.17969406,-99999.0,'11111222,11111222,99999999' 
TABS,ioos:station:wmo:42046:1,2016-01-01T08:00:00Z,27.8903,-94.0367,2.0,281.2597459,17.77205109,-99999.0,'11111222,11111222,99999999' 
TABS,ioos:station:wmo:42046:1,2016-01-01T08:30:00Z,27.8903,-94.0367,2.0,287.3817546,18.7459889,-99999.0,'11111222,11111222,99999999' 
TABS,ioos:station:wmo:42046:1,2016-01-01T09:00:00Z,27.8903,-94.0367,2.0,286.7394122,15.17292984,-99999.0,'11111222,11111222,99999999' 
TABS,ioos:station:wmo:42046:1,2016-01-01T09:30:00Z,27.8903,-94.0367,2.0,311.4292482,14.4176177,-99999.0,'11111222,11111222,99999999' 
TABS,ioos:station:wmo:42046:1,2016-01-01T10:00:00Z,27.8903,-94.0367,2.0,303.0182349,12.05723849,-99999.0,'11111222,11111222,99999999' 
TABS,ioos:station:wmo:42046:1,2016-01-01T10:30:00Z,27.8903,-94.0367,2.0,286.0151318,14.75253538,-99999.0,'11111222,11111222,99999999' 
TABS,ioos:station:wmo:42046:1,2016-01-01T11:00:00Z,27.8903,-94.0367,2.0,308.3345988,11.26968056,-99999.0,'11111222,11111222,99999999' 
TABS,ioos:station:wmo:42046:1,2016-01-01T11:30:00Z,27.8903,-94.0367,2.0,295.6398742,13.84306686,-99999.0,'11111222,11111222,99999999' 
TABS,ioos:station:wmo:42046:1,2016-01-01T12:00:00Z,27.8903,-94.0367,2.0,278.7619938,11.29176691,-99999.0,'11111222,11111222,99999999' 
TABS,ioos:station:wmo:42046:1,2016-01-01T12:30:00Z,27.8903,-94.0367,2.0,279.4332226,9.57953026,-99999.0,'11133222,11111222,99999999' 
TABS,ioos:station:wmo:42046:1,2016-01-01T13:00:00Z,27.8903,-94.0367,2.0,282.2848029,9.917066098,-99999.0,'11133222,11111222,99999999' 
TABS,ioos:station:wmo:42046:1,2016-01-01T13:30:00Z,27.8903,-94.0367,2.0,283.2037084,12.34636789,-99999.0,'11111222,11111222,99999999' 
TABS,ioos:station:wmo:42046:1,2016-01-01T14:00:00Z,27.8903,-94.0367,2.0,266.7598864,10.08611917,-99999.0,'11111222,11111222,99999999' 
TABS,ioos:station:wmo:42046:1,2016-01-01T14:30:00Z,27.8903,-94.0367,2.0,276.6556045,12.252563,-99999.0,'11111222,11111222,99999999' 
TABS,ioos:station:wmo:42046:1,2016-01-01T15:00:00Z,27.8903,-94.0367,2.0,267.724558,8.816949586,-99999.0,'11133222,11111222,99999999' 
TABS,ioos:station:wmo:42046:1,2016-01-01T15:30:00Z,27.8903,-94.0367,2.0,249.8387497,14.59420776,-99999.0,'11111222,11111222,99999999' 
TABS,ioos:station:wmo:42046:1,2016-01-01T16:00:00Z,27.8903,-94.0367,2.0,266.687302,10.55763705,-99999.0,'11111222,11111222,99999999' 
TABS,ioos:station:wmo:42046:1,2016-01-01T16:30:00Z,27.8903,-94.0367,2.0,263.6253017,9.277354149,-99999.0,'11133222,11111222,99999999' 
TABS,ioos:station:wmo:42046:1,2016-01-01T17:00:00Z,27.8903,-94.0367,2.0,262.2957334,11.78638197,-99999.0,'11111222,11111222,99999999' 
TABS,ioos:station:wmo:42046:1,2016-01-01T17:30:00Z,27.8903,-94.0367,2.0,236.9830598,9.910403624,-99999.0,'11133222,11111222,99999999' 
TABS,ioos:station:wmo:42046:1,2016-01-01T18:00:00Z,27.8903,-94.0367,2.0,229.7541432,11.00509427,-99999.0,'11111222,11111222,99999999' 
TABS,ioos:station:wmo:42046:1,2016-01-01T18:30:00Z,27.8903,-94.0367,2.0,236.3095903,10.42004319,-99999.0,'11111222,11111222,99999999' 
TABS,ioos:station:wmo:42046:1,2016-01-01T19:00:00Z,27.8903,-94.0367,2.0,235.1161037,12.11728105,-99999.0,'11111222,11111222,99999999' 
TABS,ioos:station:wmo:42046:1,2016-01-01T19:30:00Z,27.8903,-94.0367,2.0,237.1014631,8.027278493,-99999.0,'11133222,11111222,99999999' 
TABS,ioos:station:wmo:42046:1,2016-01-01T20:00:00Z,27.8903,-94.0367,2.0,227.7570022,13.67005852,-99999.0,'11111222,11111222,99999999' 
TABS,ioos:station:wmo:42046:1,2016-01-01T20:30:00Z,27.8903,-94.0367,2.0,263.0346885,15.09136508,-99999.0,'11111222,11111222,99999999' 
TABS,ioos:station:wmo:42046:1,2016-01-01T21:00:00Z,27.8903,-94.0367,2.0,245.7594186,12.56810248,-99999.0,'11111222,11111222,99999999' 
TABS,ioos:station:wmo:42046:1,2016-01-01T21:30:00Z,27.8903,-94.0367,2.0,250.7354359,14.63971653,-99999.0,'11111222,11111222,99999999' 
TABS,ioos:station:wmo:42046:1,2016-01-01T22:00:00Z,27.8903,-94.0367,2.0,262.8745794,15.07642199,-99999.0,'11111222,11111222,99999999' 
TABS,ioos:station:wmo:42046:1,2016-01-01T22:30:00Z,27.8903,-94.0367,2.0,249.0015567,16.68822339,-99999.0,'11111222,11111222,99999999' 
TABS,ioos:station:wmo:42046:1,2016-01-01T23:00:00Z,27.8903,-94.0367,2.0,244.8555594,14.96836998,-99999.0,'11111222,11111222,99999999' 
TABS,ioos:station:wmo:42046:1,2016-01-01T23:30:00Z,27.8903,-94.0367,2.0,248.0365863,13.82321598,-99999.0,'11111222,11111222,99999999' 
TABS,ioos:station:wmo:42046:1,2016-01-02T00:00:00Z,27.8903,-94.0367,2.0,254.6291288,14.37413302,-99999.0,'11111222,11111222,99999999' 
TABS,ioos:station:wmo:42046:1,2016-01-02T00:30:00Z,27.8903,-94.0367,2.0,249.5948663,19.50380476,-99999.0,'11111222,11111222,99999999' 
TABS,ioos:station:wmo:42046:1,2016-01-02T01:00:00Z,27.8903,-94.0367,2.0,255.0504564,18.72370156,-99999.0,'11111222,11111222,99999999' 
TABS,ioos:station:wmo:42046:1,2016-01-02T01:30:00Z,27.8903,-94.0367,2.0,243.3367921,18.34025627,-99999.0,'11111222,11111222,99999999' 
TABS,ioos:station:wmo:42046:1,2016-01-02T02:00:00Z,27.8903,-94.0367,2.0,252.1057494,15.06892498,-99999.0,'11111222,11111222,99999999' 
TABS,ioos:station:wmo:42046:1,2016-01-02T02:30:00Z,27.8903,-94.0367,2.0,242.2664465,15.79439458,-99999.0,'11111222,11111222,99999999' 
TABS,ioos:station:wmo:42046:1,2016-01-02T03:00:00Z,27.8903,-94.0367,2.0,241.8210549,16.83532298,-99999.0,'11111222,11111222,99999999' 
TABS,ioos:station:wmo:42046:1,2016-01-02T03:30:00Z,27.8903,-94.0367,2.0,244.7564444,16.67208745,-99999.0,'11111222,11111222,99999999' 
TABS,ioos:station:wmo:42046:1,2016-01-02T04:00:00Z,27.8903,-94.0367,2.0,262.1515936,22.11715398,-99999.0,'11111222,11111222,99999999' 
TABS,ioos:station:wmo:42046:1,2016-01-02T04:30:00Z,27.8903,-94.0367,2.0,252.6245498,19.48928937,-99999.0,'11111222,11111222,99999999' 
TABS,ioos:station:wmo:42046:1,2016-01-02T05:00:00Z,27.8903,-94.0367,2.0,267.6436329,20.67747809,-99999.0,'11111222,11111222,99999999' 
TABS,ioos:station:wmo:42046:1,2016-01-02T05:30:00Z,27.8903,-94.0367,2.0,268.9434391,22.24377891,-99999.0,'11111222,11111222,99999999' 
TABS,ioos:station:wmo:42046:1,2016-01-02T06:00:00Z,27.8903,-94.0367,2.0,265.8413331,22.47917481,-99999.0,'11111222,11111222,99999999' 
TABS,ioos:station:wmo:42046:1,2016-01-02T06:30:00Z,27.8903,-94.0367,2.0,262.9707937,19.20432503,-99999.0,'11111222,11111222,99999999' 
TABS,ioos:station:wmo:42046:1,2016-01-02T07:00:00Z,27.8903,-94.0367,2.0,263.8729799,20.14505895,-99999.0,'11111222,11111222,99999999' 
TABS,ioos:station:wmo:42046:1,2016-01-02T07:30:00Z,27.8903,-94.0367,2.0,267.5529378,24.36220844,-99999.0,'11111222,11111222,99999999' 
TABS,ioos:station:wmo:42046:1,2016-01-02T08:00:00Z,27.8903,-94.0367,2.0,267.7684097,18.49402066,-99999.0,'11111222,11111222,99999999' 
TABS,ioos:station:wmo:42046:1,2016-01-02T08:30:00Z,27.8903,-94.0367,2.0,275.2743045,17.62461063,-99999.0,'11111222,11111222,99999999' 
TABS,ioos:station:wmo:42046:1,2016-01-02T09:00:00Z,27.8903,-94.0367,2.0,281.4974372,19.81764113,-99999.0,'11111222,11111222,99999999' 
TABS,ioos:station:wmo:42046:1,2016-01-02T09:30:00Z,27.8903,-94.0367,2.0,280.7322606,13.80139486,-99999.0,'11111222,11111222,99999999' 
TABS,ioos:station:wmo:42046:1,2016-01-02T10:00:00Z,27.8903,-94.0367,2.0,264.2116968,11.80015678,-99999.0,'11111222,11111222,99999999' 
TABS,ioos:station:wmo:42046:1,2016-01-02T10:30:00Z,27.8903,-94.0367,2.0,294.7363022,14.29128406,-99999.0,'11111222,11111222,99999999' 
TABS,ioos:station:wmo:42046:1,2016-01-02T11:00:00Z,27.8903,-94.0367,2.0,278.8797713,13.73460229,-99999.0,'11111222,11111222,99999999' 
TABS,ioos:station:wmo:42046:1,2016-01-02T11:30:00Z,27.8903,-94.0367,2.0,276.8916183,10.33466013,-99999.0,'11111222,11111222,99999999' 
TABS,ioos:station:wmo:42046:1,2016-01-02T12:00:00Z,27.8903,-94.0367,2.0,283.1828319,19.2061032,-99999.0,'11111222,11111222,99999999' 
TABS,ioos:station:wmo:42046:1,2016-01-02T12:30:00Z,27.8903,-94.0367,2.0,274.7048186,13.656006,-99999.0,'11111222,11111222,99999999' 
TABS,ioos:station:wmo:42046:1,2016-01-02T13:00:00Z,27.8903,-94.0367,2.0,278.9146473,16.32721042,-99999.0,'11111222,11111222,99999999' 
TABS,ioos:station:wmo:42046:1,2016-01-02T13:30:00Z,27.8903,-94.0367,2.0,287.1061693,13.76909946,-99999.0,'11111222,11111222,99999999' 
TABS,ioos:station:wmo:42046:1,2016-01-02T14:00:00Z,27.8903,-94.0367,2.0,278.1794092,11.59796965,-99999.0,'11111222,11111222,99999999' 
TABS,ioos:station:wmo:42046:1,2016-01-02T14:30:00Z,27.8903,-94.0367,2.0,293.9274271,16.42119667,-99999.0,'11111222,11111222,99999999' 
TABS,ioos:station:wmo:42046:1,2016-01-02T15:00:00Z,27.8903,-94.0367,2.0,285.0287142,12.18681665,-99999.0,'11111222,11111222,99999999' 
TABS,ioos:station:wmo:42046:1,2016-01-02T15:30:00Z,27.8903,-94.0367,2.0,282.9285687,16.80601083,-99999.0,'11111222,11111222,99999999' 
TABS,ioos:station:wmo:42046:1,2016-01-02T16:00:00Z,27.8903,-94.0367,2.0,274.3614648,9.33703379,-99999.0,'11133222,11111222,99999999' 
TABS,ioos:station:wmo:42046:1,2016-01-02T16:30:00Z,27.8903,-94.0367,2.0,305.2990042,10.86808631,-99999.0,'11111222,11111222,99999999' 
TABS,ioos:station:wmo:42046:1,2016-01-02T17:00:00Z,27.8903,-94.0367,2.0,278.7387769,11.18988829,-99999.0,'11111222,11111222,99999999' 
TABS,ioos:station:wmo:42046:1,2016-01-02T17:30:00Z,27.8903,-94.0367,2.0,266.1463418,12.64859281,-99999.0,'11111222,11111222,99999999' 
TABS,ioos:station:wmo:42046:1,2016-01-02T18:00:00Z,27.8903,-94.0367,2.0,289.3206193,14.32682798,-99999.0,'11111222,11111222,99999999' 
TABS,ioos:station:wmo:42046:1,2016-01-02T18:30:00Z,27.8903,-94.0367,2.0,272.3219461,13.33094145,-99999.0,'11111222,11111222,99999999' 
TABS,ioos:station:wmo:42046:1,2016-01-02T19:00:00Z,27.8903,-94.0367,2.0,268.0355644,9.045313704,-99999.0,'11133222,11111222,99999999' 
TABS,ioos:station:wmo:42046:1,2016-01-02T19:30:00Z,27.8903,-94.0367,2.0,253.8623403,14.35563304,-99999.0,'11111222,11111222,99999999' 
TABS,ioos:station:wmo:42046:1,2016-01-02T20:00:00Z,27.8903,-94.0367,2.0,243.5179897,9.217081968,-99999.0,'11133222,11111222,99999999' 
TABS,ioos:station:wmo:42046:1,2016-01-02T20:30:00Z,27.8903,-94.0367,2.0,239.7466023,12.16704566,-99999.0,'11111222,11111222,99999999' 
TABS,ioos:station:wmo:42046:1,2016-01-02T21:00:00Z,27.8903,-94.0367,2.0,280.6160978,8.902364854,-99999.0,'11133222,11111222,99999999' 
TABS,ioos:station:wmo:42046:1,2016-01-02T21:30:00Z,27.8903,-94.0367,2.0,277.2618656,12.500256,-99999.0,'11111222,11111222,99999999' 
TABS,ioos:station:wmo:42046:1,2016-01-02T22:00:00Z,27.8903,-94.0367,2.0,275.4145078,13.46004829,-99999.0,'11111222,11111222,99999999' 
TABS,ioos:station:wmo:42046:1,2016-01-02T22:30:00Z,27.8903,-94.0367,2.0,263.9522011,10.15652007,-99999.0,'11111222,11111222,99999999' 
TABS,ioos:station:wmo:42046:1,2016-01-02T23:00:00Z,27.8903,-94.0367,2.0,275.8951545,12.07384363,-99999.0,'11111222,11111222,99999999' 
TABS,ioos:station:wmo:42046:1,2016-01-02T23:30:00Z,27.8903,-94.0367,2.0,267.0435418,10.08341708,-99999.0,'11111222,11111222,99999999' 
TABS,ioos:station:wmo:42046:1,2016-01-03T00:00:00Z,27.8903,-94.0367,2.0,249.7775856,10.03878977,-99999.0,'11111222,11111222,99999999' 
TABS,ioos:station:wmo:42046:1,2016-01-03T00:30:00Z,27.8903,-94.0367,2.0,269.4905035,12.38048868,-99999.0,'11111222,11111222,99999999' 
TABS,ioos:station:wmo:42046:1,2016-01-03T01:00:00Z,27.8903,-94.0367,2.0,258.8284739,15.38143361,-99999.0,'11111222,11111222,99999999' 
TABS,ioos:station:wmo:42046:1,2016-01-03T01:30:00Z,27.8903,-94.0367,2.0,273.6454404,13.52736486,-99999.0,'11111222,11111222,99999999' 
TABS,ioos:station:wmo:42046:1,2016-01-03T02:00:00Z,27.8903,-94.0367,2.0,236.7375974,8.168188294,-99999.0,'11133222,11111222,99999999' 
TABS,ioos:station:wmo:42046:1,2016-01-03T02:30:00Z,27.8903,-94.0367,2.0,253.202869,19.13643906,-99999.0,'11111222,11111222,99999999' 
TABS,ioos:station:wmo:42046:1,2016-01-03T03:00:00Z,27.8903,-94.0367,2.0,276.3698452,12.98012327,-99999.0,'11111222,11111222,99999999' 
TABS,ioos:station:wmo:42046:1,2016-01-03T03:30:00Z,27.8903,-94.0367,2.0,245.6825663,13.45359432,-99999.0,'11111222,11111222,99999999' 
TABS,ioos:station:wmo:42046:1,2016-01-03T04:00:00Z,27.8903,-94.0367,2.0,265.3569877,12.97256336,-99999.0,'11111222,11111222,99999999' 
TABS,ioos:station:wmo:42046:1,2016-01-03T04:30:00Z,27.8903,-94.0367,2.0,260.4194111,15.98290337,-99999.0,'11111222,11111222,99999999' 
TABS,ioos:station:wmo:42046:1,2016-01-03T05:00:00Z,27.8903,-94.0367,2.0,251.4045269,14.70781085,-99999.0,'11111222,11111222,99999999' 
TABS,ioos:station:wmo:42046:1,2016-01-03T05:30:00Z,27.8903,-94.0367,2.0,259.0973454,16.81346187,-99999.0,'11111222,11111222,99999999' 
TABS,ioos:station:wmo:42046:1,2016-01-03T06:00:00Z,27.8903,-94.0367,2.0,269.7738291,12.6900985,-99999.0,'11111222,11111222,99999999' 
TABS,ioos:station:wmo:42046:1,2016-01-03T06:30:00Z,27.8903,-94.0367,2.0,271.0750515,15.46271968,-99999.0,'11111222,11111222,99999999' 
TABS,ioos:station:wmo:42046:1,2016-01-03T07:00:00Z,27.8903,-94.0367,2.0,272.0527335,14.79949323,-99999.0,'11111222,11111222,99999999' 
TABS,ioos:station:wmo:42046:1,2016-01-03T07:30:00Z,27.8903,-94.0367,2.0,266.9548078,10.35461733,-99999.0,'11111222,11111222,99999999' 
TABS,ioos:station:wmo:42046:1,2016-01-03T08:00:00Z,27.8903,-94.0367,2.0,268.4620502,16.02576987,-99999.0,'11111222,11111222,99999999' 
TABS,ioos:station:wmo:42046:1,2016-01-03T08:30:00Z,27.8903,-94.0367,2.0,263.7160619,10.0503781,-99999.0,'11111222,11111222,99999999' 
TABS,ioos:station:wmo:42046:1,2016-01-03T09:00:00Z,27.8903,-94.0367,2.0,274.108967,14.23658667,-99999.0,'11111222,11111222,99999999' 
TABS,ioos:station:wmo:42046:1,2016-01-03T09:30:00Z,27.8903,-94.0367,2.0,264.0595557,12.17537268,-99999.0,'11111222,11111222,99999999' 
TABS,ioos:station:wmo:42046:1,2016-01-03T10:00:00Z,27.8903,-94.0367,2.0,256.4911807,10.53134369,-99999.0,'11111222,11111222,99999999' 
TABS,ioos:station:wmo:42046:1,2016-01-03T10:30:00Z,27.8903,-94.0367,2.0,272.522323,9.999684995,-99999.0,'11133222,11111222,99999999' 
TABS,ioos:station:wmo:42046:1,2016-01-03T11:00:00Z,27.8903,-94.0367,2.0,262.3620442,9.706106325,-99999.0,'11133222,11111222,99999999' 
TABS,ioos:station:wmo:42046:1,2016-01-03T11:30:00Z,27.8903,-94.0367,2.0,268.1465428,10.20533684,-99999.0,'11111222,11111222,99999999' 
TABS,ioos:station:wmo:42046:1,2016-01-03T12:00:00Z,27.8903,-94.0367,2.0,281.2988609,9.799923469,-99999.0,'11133222,11111222,99999999' 
TABS,ioos:station:wmo:42046:1,2016-01-03T12:30:00Z,27.8903,-94.0367,2.0,246.7157271,6.172722252,-99999.0,'11133222,11111222,99999999' 
TABS,ioos:station:wmo:42046:1,2016-01-03T13:00:00Z,27.8903,-94.0367,2.0,262.7339001,9.093013802,-99999.0,'11133222,11111222,99999999' 
TABS,ioos:station:wmo:42046:1,2016-01-03T13:30:00Z,27.8903,-94.0367,2.0,265.7823064,7.750987034,-99999.0,'11133222,11111222,99999999' 
TABS,ioos:station:wmo:42046:1,2016-01-03T14:00:00Z,27.8903,-94.0367,2.0,294.1025991,4.162931659,-99999.0,'11133222,11111222,99999999' 
TABS,ioos:station:wmo:42046:1,2016-01-03T14:30:00Z,27.8903,-94.0367,2.0,294.1244447,5.040198409,-99999.0,'11133222,11111222,99999999' 
TABS,ioos:station:wmo:42046:1,2016-01-03T15:00:00Z,27.8903,-94.0367,2.0,285.1424949,5.78070065,-99999.0,'11133222,11111222,99999999' 
TABS,ioos:station:wmo:42046:1,2016-01-03T15:30:00Z,27.8903,-94.0367,2.0,262.7245911,5.685771715,-99999.0,'11133222,11111222,99999999' 
TABS,ioos:station:wmo:42046:1,2016-01-03T16:00:00Z,27.8903,-94.0367,2.0,234.4076414,3.676914467,-99999.0,'11133222,11111222,99999999' 
TABS,ioos:station:wmo:42046:1,2016-01-03T16:30:00Z,27.8903,-94.0367,2.0,225.6532185,1.859811818,-99999.0,'11133222,11111222,99999999' 
TABS,ioos:station:wmo:42046:1,2016-01-03T17:00:00Z,27.8903,-94.0367,2.0,253.9841769,3.370830758,-99999.0,'11133222,11111222,99999999' 
TABS,ioos:station:wmo:42046:1,2016-01-03T17:30:00Z,27.8903,-94.0367,2.0,324.2560218,1.934373284,-99999.0,'11133222,11111222,99999999' 
TABS,ioos:station:wmo:42046:1,2016-01-03T18:00:00Z,27.8903,-94.0367,2.0,248.1189187,2.683300207,-99999.0,'11133222,11111222,99999999' 
TABS,ioos:station:wmo:42046:1,2016-01-03T18:30:00Z,27.8903,-94.0367,2.0,241.1380651,3.459739875,-99999.0,'11133222,11111222,99999999' 
TABS,ioos:station:wmo:42046:1,2016-01-03T19:00:00Z,27.8903,-94.0367,2.0,251.4294361,4.019266102,-99999.0,'11133222,11111222,99999999' 
TABS,ioos:station:wmo:42046:1,2016-01-03T19:30:00Z,27.8903,-94.0367,2.0,278.6265581,3.26695577,-99999.0,'11133222,11111222,99999999' 
TABS,ioos:station:wmo:42046:1,2016-01-03T20:00:00Z,27.8903,-94.0367,2.0,252.1594165,1.827894964,-99999.0,'11133222,11111222,99999999' 
TABS,ioos:station:wmo:42046:1,2016-01-03T20:30:00Z,27.8903,-94.0367,2.0,255.9105127,2.629087294,-99999.0,'11133222,11111222,99999999' 
TABS,ioos:station:wmo:42046:1,2016-01-03T21:00:00Z,27.8903,-94.0367,2.0,230.3763772,2.414787775,-99999.0,'11133222,11111222,99999999' 
TABS,ioos:station:wmo:42046:1,2016-01-03T21:30:00Z,27.8903,-94.0367,2.0,111.8013585,2.477175811,-99999.0,'11133222,11111222,99999999' 
TABS,ioos:station:wmo:42046:1,2016-01-03T22:00:00Z,27.8903,-94.0367,2.0,193.646996,2.500599928,-99999.0,'11133222,11111222,99999999' 
TABS,ioos:station:wmo:42046:1,2016-01-03T22:30:00Z,27.8903,-94.0367,2.0,127.9420646,1.496262009,-99999.0,'11133222,11111222,99999999' 
TABS,ioos:station:wmo:42046:1,2016-01-03T23:00:00Z,27.8903,-94.0367,2.0,0.000210459,1.22,-99999.0,'11133222,11111222,99999999' 
TABS,ioos:station:wmo:42046:1,2016-01-03T23:30:00Z,27.8903,-94.0367,2.0,183.6911669,4.038378387,-99999.0,'11133222,11111222,99999999' 
TABS,ioos:station:wmo:42046:1,2016-01-04T00:00:00Z,27.8903,-94.0367,2.0,340.6005134,3.94391937,-99999.0,'11133222,11111222,99999999' 
TABS,ioos:station:wmo:42046:1,2016-01-04T00:30:00Z,27.8903,-94.0367,2.0,99.40075806,1.530555455,-99999.0,'11133222,11111222,99999999' 
TABS,ioos:station:wmo:42046:1,2016-01-04T01:00:00Z,27.8903,-94.0367,2.0,213.5660298,2.568267899,-99999.0,'11133222,11111222,99999999' 
TABS,ioos:station:wmo:42046:1,2016-01-04T01:30:00Z,27.8903,-94.0367,2.0,236.7679457,1.386794866,-99999.0,'11133222,11111222,99999999' 
TABS,ioos:station:wmo:42046:1,2016-01-04T02:00:00Z,27.8903,-94.0367,2.0,115.4806584,1.417921013,-99999.0,'11133222,11111222,99999999' 
TABS,ioos:station:wmo:42046:1,2016-01-04T02:30:00Z,27.8903,-94.0367,2.0,202.1613315,4.135516896,-99999.0,'11133222,11111222,99999999' 
TABS,ioos:station:wmo:42046:1,2016-01-04T03:00:00Z,27.8903,-94.0367,2.0,215.2288938,2.374973684,-99999.0,'11133222,11111222,99999999' 
TABS,ioos:station:wmo:42046:1,2016-01-04T03:30:00Z,27.8903,-94.0367,2.0,179.335522,3.450231876,-99999.0,'11133222,11111222,99999999' 
TABS,ioos:station:wmo:42046:1,2016-01-04T04:00:00Z,27.8903,-94.0367,2.0,154.6049751,5.036675491,-99999.0,'11133222,11111222,99999999' 
TABS,ioos:station:wmo:42046:1,2016-01-04T04:30:00Z,27.8903,-94.0367,2.0,170.6518804,6.58748055,-99999.0,'11133222,11111222,99999999' 
TABS,ioos:station:wmo:42046:1,2016-01-04T05:00:00Z,27.8903,-94.0367,2.0,181.6940473,8.793844438,-99999.0,'11133222,11111222,99999999' 
TABS,ioos:station:wmo:42046:1,2016-01-04T05:30:00Z,27.8903,-94.0367,2.0,178.6924395,4.821255023,-99999.0,'11133222,11111222,99999999' 
TABS,ioos:station:wmo:42046:1,2016-01-04T06:00:00Z,27.8903,-94.0367,2.0,195.2487818,8.250484834,-99999.0,'11133222,11111222,99999999' 
TABS,ioos:station:wmo:42046:1,2016-01-04T06:30:00Z,27.8903,-94.0367,2.0,177.647504,7.796569759,-99999.0,'11133222,11111222,99999999' 
TABS,ioos:station:wmo:42046:1,2016-01-04T07:00:00Z,27.8903,-94.0367,2.0,217.5271737,6.796447602,-99999.0,'11133222,11111222,99999999' 
TABS,ioos:station:wmo:42046:1,2016-01-04T07:30:00Z,27.8903,-94.0367,2.0,186.3097313,6.278033131,-99999.0,'11133222,11111222,99999999' 
TABS,ioos:station:wmo:42046:1,2016-01-04T08:00:00Z,27.8903,-94.0367,2.0,181.7477058,4.261983106,-99999.0,'11133222,11111222,99999999' 
TABS,ioos:station:wmo:42046:1,2016-01-04T08:30:00Z,27.8903,-94.0367,2.0,201.955334,6.900463753,-99999.0,'11133222,11111222,99999999' 
TABS,ioos:station:wmo:42046:1,2016-01-04T09:00:00Z,27.8903,-94.0367,2.0,201.5531676,9.010022198,-99999.0,'11133222,11111222,99999999' 
TABS,ioos:station:wmo:42046:1,2016-01-04T09:30:00Z,27.8903,-94.0367,2.0,237.5631243,6.338966793,-99999.0,'11133222,11111222,99999999' 
TABS,ioos:station:wmo:42046:1,2016-01-04T10:00:00Z,27.8903,-94.0367,2.0,195.5543244,4.027505431,-99999.0,'11133222,11111222,99999999' 
TABS,ioos:station:wmo:42046:1,2016-01-04T10:30:00Z,27.8903,-94.0367,2.0,246.9714268,4.857046428,-99999.0,'11133222,11111222,99999999' 
TABS,ioos:station:wmo:42046:1,2016-01-04T11:00:00Z,27.8903,-94.0367,2.0,191.2791705,3.681100379,-99999.0,'11133222,11111222,99999999' 
TABS,ioos:station:wmo:42046:1,2016-01-04T11:30:00Z,27.8903,-94.0367,2.0,222.2358334,3.079496712,-99999.0,'11133222,11111222,99999999' 
TABS,ioos:station:wmo:42046:1,2016-01-04T12:00:00Z,27.8903,-94.0367,2.0,303.6904097,1.802775638,-99999.0,'11133222,11111222,99999999' 
TABS,ioos:station:wmo:42046:1,2016-01-04T12:30:00Z,27.8903,-94.0367,2.0,227.8206663,2.44247825,-99999.0,'11133222,11111222,99999999' 
TABS,ioos:station:wmo:42046:1,2016-01-04T13:00:00Z,27.8903,-94.0367,2.0,316.7651694,2.525569243,-99999.0,'11133222,11111222,99999999' 
TABS,ioos:station:wmo:42046:1,2016-01-04T13:30:00Z,27.8903,-94.0367,2.0,240.1905346,1.106390528,-99999.0,'11133222,11111222,99999999' 
TABS,ioos:station:wmo:42046:1,2016-01-04T14:00:00Z,27.8903,-94.0367,2.0,269.6554652,6.660120119,-99999.0,'11133222,11111222,99999999' 
TABS,ioos:station:wmo:42046:1,2016-01-04T14:30:00Z,27.8903,-94.0367,2.0,288.7733501,2.144061566,-99999.0,'11133222,11111222,99999999' 
TABS,ioos:station:wmo:42046:1,2016-01-04T15:00:00Z,27.8903,-94.0367,2.0,62.35408928,0.948261567,-99999.0,'11133222,11111222,99999999' 
TABS,ioos:station:wmo:42046:1,2016-01-04T15:30:00Z,27.8903,-94.0367,2.0,355.6508869,3.5602528,-99999.0,'11133222,11111222,99999999' 
TABS,ioos:station:wmo:42046:1,2016-01-04T16:00:00Z,27.8903,-94.0367,2.0,331.3114201,3.499614264,-99999.0,'11133222,11111222,99999999' 